Regional Weather Roundup
Issued by NWS Little Rock, AR

Home | Current Version | Previous Version | Text Only | Print | Product List | Glossary Off
Versions: 1 2 3 4 5 6 7 8 9 10 11 12 13 14 15 16 17 18 19 20 21 22 23 24 25 26 27 28 29 30 31 32 33 34 35 36 37 38 39 40 41 42 43 44 45 46 47 48 49 50

000
ASUS44 KLZK 222105
RWRLZK

WEATHER ROUNDUP FOR ARKANSAS
NATIONAL WEATHER SERVICE LITTLE ROCK AR
400 PM CDT MON SEP 22 2014

NOTE: "FAIR" INDICATES FEW OR NO CLOUDS BELOW 12,000 FEET WITH NO
SIGNIFICANT WEATHER AND/OR OBSTRUCTIONS TO VISIBILITY.

ARZ001-003-010-029-222200-
NORTHWEST ARKANSAS

CITY           SKY/WX    TMP DP  RH WIND       PRES   REMARKS
FAYETTEVILLE   SUNNY     73  50  44 CALM      30.23F
FORT SMITH     SUNNY     77  51  40 CALM      30.20F
HARRISON       SUNNY     72  52  49 E3        30.24F
BENTONVILLE    SUNNY     73  50  43 NE7       30.25F
ROGERS         SUNNY     72  49  44 NE5       30.25F
SILOAM SPGS    SUNNY     73  50  43 CALM      30.24F
HIGHFILL       SUNNY     74  49  41 CALM      30.24F
SPRINGDALE     SUNNY     73  52  46 NE6       30.26F
$$

ARZ004-005-016-222200-
NORTH CENTRAL ARKANSAS

CITY           SKY/WX    TMP DP  RH WIND       PRES   REMARKS
BATESVILLE     SUNNY     79  48  34 NE7       30.20S
FLIPPIN        SUNNY     75  50  41 E9        30.22F
MTN HOME       SUNNY     74  51  44 SE3       30.22F
$$

ARZ040-041-222200-
WEST CENTRAL ARKANSAS

CITY           SKY/WX    TMP DP  RH WIND       PRES   REMARKS
MENA           SUNNY     79  52  38 CALM      30.20F
MOUNT IDA      SUNNY     78  50  37 CALM      30.17F
$$

ARZ009-017-025-026-028-222200-
NORTHEAST ARKANSAS

CITY           SKY/WX    TMP DP  RH WIND       PRES   REMARKS
CORNING          N/A     75  50  41 NE8G18    30.21S
JONESBORO      SUNNY     77  50  38 N10G22    30.19F
NEWPORT        SUNNY     77  51  39 NE15G24   30.21F
WALNUT RIDGE   SUNNY     75  46  35 N10       30.20F
BLYTHEVILLE    SUNNY     77  51  40 NE9G18    30.19F
NW BLYTHEVILLE SUNNY     75  52  43 N7        30.19F
$$

ARZ022-023-033-042-044-222200-
CENTRAL ARKANSAS

CITY           SKY/WX    TMP DP  RH WIND       PRES   REMARKS
LITTLE ROCK    MOSUNNY   80  48  32 NE14      30.18F
N LITTLE ROCK  MOSUNNY   79  53  41 NE8G17    30.18F
JACKSONVILLE   SUNNY     80  50  35 NE10      30.18F
SEARCY         SUNNY     78  49  36 NE13      30.20F
HOT SPRINGS    SUNNY     78  50  37 E7        30.18F
RUSSELLVILLE   SUNNY     80  50  34 E6        30.19F
CLINTON        FAIR      79  54  41 NE3       30.20F
$$

ARZ036-222200-
EAST ARKANSAS

CITY           SKY/WX    TMP DP  RH WIND       PRES   REMARKS
WEST MEMPHIS   SUNNY     76  52  43 NE14G22   30.16F
$$

ARZ050-053-066-070-073-222200-
SOUTHWEST ARKANSAS

CITY           SKY/WX    TMP DP  RH WIND       PRES   REMARKS
ARKADELPHIA    LGT RAIN  80  52  37 VRB6      30.17F
CAMDEN         SUNNY     82  50  32 NE9       30.15S
TEXARKANA      SUNNY     80  52  37 NE12      30.15F
EL DORADO      SUNNY     81  53  37 N10       30.14F
DE QUEEN       SUNNY     80  51  36 VRB3      30.14F
$$

ARZ056-057-069-222200-
SOUTHEAST ARKANSAS

CITY           SKY/WX    TMP DP  RH WIND       PRES   REMARKS
PINE BLUFF     SUNNY     79  50  36 N13G21    30.16F
STUTTGART      SUNNY     79  54  41 N12G17    30.18S
MONTICELLO     SUNNY     81  51  35 NE14      30.14F

$$




USA.gov is the U.S. government's official web portal to all federal, state and local government web resources and services.